Volver al catálogo

STARLINK-30561

ActivoComunicacionesVLEO
NORAD 58032·PAYLOAD·🇺🇸 United States

Lanzado Oct 9, 2023 desde Vandenberg Space Force Base

Loading…

Próximos Pases (próximas 24 horas)

TLE

ActualizadoSource: CelesTrak SupGP

Época: Sep 15, 2026, 02:54 UTC

1 58032C 23156E   26258.12131944 -.00003824  00000+0 -11293-3 0  2588
2 58032  53.1569 276.6219 0001290  92.6029 230.9236 15.34401721    16

Sigue STARLINK-30561 en tiempo real con AllMySat

Download on the App Store